[[[{"header":{"parameterUnit":"kt","parameterCategory":2,"dx":1,"dy":1,"la1":30.253999710083008,"la2":30.299108505249023,"lo1":-89.0895004272461,"lo2":-89.04439544677734,"nx":28,"ny":28,"refTime":"2022-09-20T09:00:00:Z","depth":0,"parameterNumber":1,"parameterNumberName":"U-component_of_WINDS"},"data":[3.9822,3.9909,3.9913,4.0013,4.0034,4.0102,4.0127,4.016,4.0188,4.0268,4.0314,4.0327,4.0354,4.041,4.0459,4.0463,4.0482,4.0508,4.0508,4.0388,4.0372,4.0356,4.0335,4.0514,4.0514,4.063,4.0631,4.0632,3.9729,3.9751,3.9806,3.9862,3.9909,3.9886,3.9928,3.9967,4.0029,4.0064,4.0111,4.0182,4.0238,4.0257,4.0311,4.0349,4.034,4.0363,4.0358,4.0362,4.0236,4.0214,4.0369,4.0369,4.0369,4.0369,4.0369,4.0369,3.956,3.9612,3.9649,3.9709,3.9739,3.9777,3.9826,3.9842,3.9895,3.9954,3.9949,4.0018,4.0053,4.0121,4.0145,4.0197,4.0172,4.0198,4.0204,4.021,4.0214,4.004,4.0207,4.0207,4.0207,4.0206,4.0206,0,3.9436,3.9437,3.9491,3.9546,3.9591,3.9634,3.9674,3.9705,3.9707,3.9752,3.9815,3.9852,3.9925,3.9984,4.0036,4.0056,4.0034,4.0034,4.0051,4.0052,4.0045,4.0046,3.9835,4.0028,4.0027,4.0026,4.0025,4.0024,3.9263,3.9325,3.9368,3.9405,3.9428,3.9489,3.9526,3.9523,3.9562,3.9611,3.9656,3.9717,3.9765,3.9865,3.9881,3.9935,3.9924,3.9997,3.9932,3.9931,3.9921,3.9916,3.992,4.0008,4.001,4.0012,4.0013,0,3.9163,3.9172,3.9271,3.9307,3.9318,3.9382,3.9412,3.9465,3.9474,3.9547,3.9564,3.9578,3.964,3.9645,3.9717,3.9717,3.9818,3.9809,3.9805,3.9802,3.9864,3.9857,4.0075,4.0101,3.9921,3.9922,3.9924,0,3.9017,3.91,3.9107,3.9164,3.9255,3.9251,3.934,3.9357,3.9389,3.9446,3.9425,3.9479,3.9477,3.9531,3.9531,3.9615,3.963,3.9634,3.9632,3.9634,3.9633,3.9652,3.9642,3.9632,3.963,3.9629,3.9629,0,3.8858,3.8962,3.9054,3.9079,3.9126,3.9169,3.9191,3.9227,3.9264,3.9312,3.9334,3.9391,3.9421,3.9464,3.9464,3.9419,3.9568,3.9507,3.9571,3.9571,3.9602,3.96,3.9794,3.9627,3.9627,3.9626,3.9626,0,3.8741,3.8792,3.8927,3.8965,3.8992,3.9054,3.9108,3.9163,3.9203,3.9207,3.9245,3.9231,3.9308,3.9246,3.935,3.9292,3.9322,3.9334,3.9338,3.9343,3.9273,3.9377,3.9565,3.9583,3.9349,3.9347,3.9345,0,3.8555,3.8694,3.8693,3.8821,3.8886,3.8856,3.8924,3.8961,3.8973,3.9028,3.9041,3.9104,3.906,3.908,3.9132,3.9146,3.9223,3.9137,3.9211,3.9214,3.9198,3.9371,3.9396,3.9524,3.9316,3.9319,3.9321,0,3.8411,3.8471,3.8494,3.8521,3.8572,3.8627,3.8706,3.8769,3.8805,3.8851,3.8915,3.9007,3.8975,3.901,3.9005,3.9058,3.9171,3.9017,3.9018,3.9042,3.9303,3.9326,3.9347,3.9155,3.9159,3.9161,3.9298,0,3.8225,3.8298,3.8362,3.8426,3.847,3.8553,3.8559,3.8604,3.8594,3.8605,3.8702,3.8735,3.8799,3.8826,3.8818,3.894,3.892,3.8887,3.8825,3.894,3.8985,3.9003,3.8757,3.8755,3.8754,3.8753,0,0,3.8042,3.8147,3.8144,3.8222,3.8258,3.8227,3.8314,3.8346,3.8412,3.8437,3.8403,3.8536,3.8565,3.8681,3.8718,3.8745,3.8766,3.8727,3.8886,3.8901,3.8915,3.8962,3.8982,3.875,3.875,3.8749,3.8749,0,3.7975,3.8009,3.8097,3.813,3.8179,3.8187,3.8208,3.8251,3.8262,3.8359,3.8331,3.839,3.8499,3.8531,3.8562,3.8714,3.8687,3.8733,3.8811,3.8871,3.8888,3.8903,3.8953,3.8972,3.8745,3.8745,3.8745,0,3.7833,3.7865,3.7909,3.7994,3.8026,3.8095,3.8032,3.8109,3.8159,3.8121,3.8217,3.8237,3.8282,3.8393,3.8444,3.8414,3.8615,3.8555,3.8564,3.8569,3.8628,3.8648,3.8666,3.8428,3.8426,3.8425,0,0,3.7773,3.7843,3.7877,3.798,3.8002,3.8017,3.8055,3.8049,3.8092,3.811,3.8134,3.8176,3.8238,3.828,3.8339,3.8461,3.8468,3.8515,3.853,3.8542,3.8554,3.8616,3.8636,3.8421,3.8421,3.8421,0,0,3.7745,3.7789,3.7773,3.7894,3.7936,3.7976,3.8038,3.8018,3.8073,3.8064,3.8058,3.8069,3.8173,3.8194,3.8135,3.8316,3.8256,3.827,3.8299,3.8318,3.8333,3.8324,3.8074,0,0,0,0,0,3.768,3.7784,3.7768,3.779,3.7897,3.7985,3.7998,3.7996,3.7952,3.8001,3.8018,3.7989,3.816,3.8108,3.8129,3.8194,3.8366,3.8375,3.8385,3.8451,3.8471,3.8487,0,0,0,0,0,0,3.7689,3.7715,3.7765,3.781,3.7834,3.7981,3.7906,3.7908,3.7947,3.794,3.7987,3.7991,3.799,3.8097,3.8116,3.8178,3.8068,3.8369,3.8378,3.8385,3.8458,3.8474,3.8488,0,0,0,0,0,3.7695,3.7717,3.789,3.7808,3.7829,3.7851,3.7902,3.7903,3.7933,3.7961,3.7964,3.7928,3.7992,3.8007,3.8109,3.8169,3.8055,3.8062,3.8375,3.8381,3.8387,3.8466,0,0,0,0,0,0,3.77,3.7718,3.7895,3.7901,3.777,3.7843,3.7854,3.7899,3.7951,3.7955,3.7901,3.7895,3.7995,3.8006,3.8018,3.8166,3.8045,3.8052,3.8056,3.838,3.8385,3.839,0,0,0,0,0,0,3.7706,3.7724,3.7898,3.7849,3.785,3.7835,3.7845,3.7931,3.7952,3.7888,3.7885,3.7898,3.7976,3.8006,3.8015,3.815,3.8036,3.8043,3.8048,3.8051,3.8384,3.8388,0,0,0,0,0,0,3.7713,3.7728,3.7847,3.7848,3.7848,3.7918,3.7911,3.8021,3.7912,3.7886,3.7902,3.7897,3.7976,3.7986,3.8013,3.8144,3.8148,3.8037,3.8041,3.8045,3.8047,0,0,0,0,0,0,0,3.7719,3.7622,3.7858,3.7847,3.7847,3.7958,3.796,3.7962,3.7911,3.7907,3.7903,3.7899,3.7998,3.8005,3.8013,3.8139,0,0,3.8036,3.8039,0,0,0,0,0,0,0,0,3.7616,3.7621,3.7858,3.7859,3.7861,3.7958,3.796,3.7961,3.791,3.7907,3.7904,3.7901,3.8,3.8006,3.8012,0,0,0,0,0,0,0,0,0,0,0,0,0,0,0,3.7858,3.7859,0,3.7959,3.796,3.7961,3.791,3.7907,3.7904,3.7902,3.8001,3.8006,3.8011,0,0,0,0,0,0,0,0,0,0,0,0,0,0,0,0,0,0,0,0,0,0,0,0,0,0,0,0,0,0,0,0,0,0,0,0,0,0,0,0,0,0,0,0,0,0,0,0,0,0,0,0,0,0,0,0,0,0,0,0,0,0,0,0,0,0,0,0,0]}],[{"header":{"parameterUnit":"kt","parameterCategory":2,"dx":1,"dy":1,"la1":30.253999710083008,"la2":30.299108505249023,"lo1":-89.0895004272461,"lo2":-89.04439544677734,"nx":28,"ny":28,"refTime":"2022-09-20T09:00:00:Z","depth":0,"parameterNumber":2,"parameterNumberName":"V-component_of_WINDS"},"data":[1.5012,1.502,1.5003,1.5003,1.4988,1.4985,1.4978,1.4967,1.4954,1.4947,1.494,1.4923,1.4902,1.4888,1.4878,1.4871,1.4867,1.4882,1.487,1.4822,1.4814,1.4806,1.4803,1.4882,1.4882,1.4922,1.4922,1.4922,1.4975,1.496,1.4956,1.4941,1.4936,1.4912,1.4897,1.4895,1.4892,1.4876,1.4869,1.4861,1.4853,1.4826,1.4815,1.4816,1.4803,1.4814,1.4813,1.481,1.4758,1.4755,1.4824,1.4824,1.4824,1.4824,1.4824,1.4824,1.4903,1.4909,1.4889,1.4885,1.4872,1.4862,1.4864,1.4843,1.4838,1.4826,1.4806,1.4803,1.4783,1.4761,1.4749,1.4745,1.473,1.4736,1.4737,1.4739,1.4743,1.4684,1.4743,1.4742,1.4742,1.4742,1.4742,0,1.4844,1.483,1.4825,1.4816,1.4811,1.4802,1.479,1.4791,1.4754,1.4752,1.4747,1.474,1.4728,1.472,1.4706,1.4692,1.4665,1.4661,1.4665,1.4674,1.4683,1.4676,1.4591,1.466,1.4659,1.4658,1.4658,1.4658,1.4769,1.4778,1.4751,1.475,1.474,1.4739,1.4734,1.4701,1.4698,1.4679,1.4685,1.4677,1.4669,1.4663,1.4638,1.4628,1.4615,1.4643,1.4614,1.4621,1.4614,1.4613,1.4613,1.4649,1.465,1.4651,1.4652,0,1.4727,1.4701,1.471,1.4682,1.4675,1.4686,1.4662,1.4666,1.4646,1.4649,1.4647,1.4616,1.4611,1.4581,1.457,1.4555,1.4569,1.4558,1.4575,1.4571,1.4591,1.4589,1.4667,1.4675,1.4595,1.4595,1.4596,0,1.4652,1.4666,1.4625,1.4632,1.4646,1.4613,1.4627,1.4611,1.4595,1.4597,1.4563,1.4565,1.4528,1.4526,1.4503,1.451,1.4509,1.4497,1.449,1.4499,1.45,1.4496,1.4492,1.4478,1.4477,1.4477,1.4477,0,1.4589,1.4585,1.4596,1.459,1.4563,1.4568,1.4557,1.4539,1.4535,1.4526,1.4522,1.4514,1.4509,1.4502,1.4473,1.4454,1.4482,1.4449,1.4469,1.447,1.4477,1.4477,1.4553,1.4476,1.4476,1.4476,1.4476,0,1.4524,1.4516,1.4538,1.4513,1.4513,1.4521,1.451,1.4511,1.4494,1.4481,1.4473,1.4447,1.4452,1.4422,1.4428,1.4411,1.4408,1.4397,1.4398,1.4396,1.4363,1.4409,1.4486,1.4492,1.4394,1.4394,1.4393,0,1.4458,1.4474,1.4446,1.4467,1.447,1.4431,1.4439,1.4426,1.4409,1.4408,1.4389,1.4388,1.436,1.4356,1.4362,1.4342,1.4364,1.4339,1.4335,1.4335,1.4339,1.441,1.4428,1.4472,1.4384,1.4385,1.4386,0,1.4404,1.4372,1.4378,1.437,1.4349,1.4351,1.4361,1.4354,1.4354,1.4344,1.435,1.435,1.4327,1.4322,1.43,1.4309,1.4348,1.4284,1.4283,1.4295,1.4378,1.4395,1.4402,1.4331,1.4332,1.4333,1.4379,0,1.4309,1.4314,1.4329,1.4315,1.4313,1.4326,1.4296,1.4297,1.4277,1.4259,1.4268,1.4251,1.4243,1.4245,1.4226,1.4256,1.4246,1.4223,1.4191,1.4239,1.4253,1.4258,1.4173,1.4172,1.4171,1.417,0,0,1.4252,1.4259,1.4229,1.4238,1.4234,1.4195,1.4211,1.4203,1.4188,1.4185,1.4167,1.4165,1.4152,1.4166,1.4179,1.4176,1.4178,1.4164,1.4217,1.4222,1.4227,1.4243,1.4249,1.4168,1.4168,1.4168,1.4167,0,1.4211,1.4201,1.4218,1.4208,1.4193,1.4173,1.4177,1.4155,1.4145,1.4155,1.4122,1.4124,1.4124,1.4114,1.4109,1.4161,1.4136,1.4161,1.4199,1.4208,1.4215,1.4221,1.4238,1.4244,1.4165,1.4165,1.4165,0,1.4152,1.4136,1.4142,1.4133,1.4123,1.4128,1.4087,1.4095,1.4097,1.4054,1.4065,1.4052,1.4037,1.4055,1.4063,1.4046,1.4099,1.4078,1.4083,1.4083,1.4091,1.4099,1.4106,1.4012,1.4012,1.4011,0,0,1.412,1.4126,1.4099,1.4122,1.4118,1.409,1.409,1.407,1.4058,1.4053,1.4036,1.4025,1.4024,1.4024,1.4022,1.4047,1.4041,1.4061,1.4068,1.4074,1.4077,1.4087,1.4095,1.401,1.401,1.401,0,0,1.4105,1.4075,1.4057,1.4081,1.4071,1.4046,1.406,1.4037,1.4033,1.4028,1.3994,1.399,1.4006,1.3995,1.3978,1.401,1.398,1.3983,1.4017,1.4026,1.4033,1.4035,1.3934,0,0,0,0,0,1.4049,1.4079,1.4063,1.4062,1.4052,1.4055,1.4053,1.4026,1.4004,1.4016,1.3998,1.3972,1.3978,1.3962,1.3962,1.3982,1.399,1.3993,1.3997,1.4046,1.4056,1.4063,0,0,0,0,0,0,1.4049,1.4048,1.4062,1.4039,1.4036,1.4053,1.401,1.4004,1.4002,1.3997,1.3976,1.3971,1.3948,1.396,1.396,1.398,1.3934,1.3991,1.3994,1.3997,1.4049,1.4057,1.4064,0,0,0,0,0,1.4048,1.4048,1.4039,1.4038,1.4036,1.4007,1.4009,1.4003,1.4001,1.3974,1.3968,1.3981,1.3949,1.3947,1.396,1.398,1.3933,1.3933,1.3993,1.3996,1.3998,1.4053,0,0,0,0,0,0,1.4048,1.4042,1.4038,1.4036,1.4025,1.4005,1.4001,1.4003,1.3978,1.3972,1.3977,1.3973,1.395,1.3949,1.3948,1.3982,1.3933,1.3933,1.3933,1.3995,1.3997,1.3998,0,0,0,0,0,0,1.4042,1.4041,1.4037,1.4022,1.4018,1.4004,1.4,1.4008,1.3978,1.3982,1.3978,1.3976,1.3952,1.395,1.3949,1.3961,1.3933,1.3933,1.3933,1.3933,1.3996,1.3998,0,0,0,0,0,0,1.4041,1.404,1.4022,1.402,1.4016,1.3994,1.401,1.4001,1.3966,1.3984,1.3962,1.396,1.3954,1.3952,1.395,1.3963,1.3962,1.3933,1.3933,1.3933,1.3933,0,0,0,0,0,0,0,1.404,1.4053,1.4048,1.4017,1.4014,1.402,1.4019,1.4019,1.3966,1.3964,1.3962,1.3961,1.3931,1.3932,1.3932,1.3965,0,0,1.3933,1.3933,0,0,0,0,0,0,0,0,1.4053,1.4053,1.4048,1.4048,1.4048,1.402,1.4019,1.4019,1.3965,1.3964,1.3963,1.3962,1.3931,1.3932,1.3932,0,0,0,0,0,0,0,0,0,0,0,0,0,0,0,1.4048,1.4048,0,1.402,1.4019,1.4019,1.3965,1.3964,1.3963,1.3962,1.3931,1.3932,1.3932,0,0,0,0,0,0,0,0,0,0,0,0,0,0,0,0,0,0,0,0,0,0,0,0,0,0,0,0,0,0,0,0,0,0,0,0,0,0,0,0,0,0,0,0,0,0,0,0,0,0,0,0,0,0,0,0,0,0,0,0,0,0,0,0,0,0,0,0,0]}]]]